Wetterdaten: Donnerstag, 18.12.2014
Datum Zeit Temp. A. Feuchte A. Luftdruck Regen Wind Richtung Richtung Sonnenschein ET UV Solar Taupunkt Windchill Windben Empfang
18.12.2014 00:00 4,9 C 84 % 1013,1 hPa 0,0 l/m 4,3 km/h (1 Bft) W-SW 239 0 min 0,000 mm 0,0 UV-I 0 W/m 2,4 C 4,9 C 7,9 km/h (2 Bft) 0,00 %
18.12.2014 01:00 4,9 C 85 % 1013,8 hPa 0,3 l/m 0,0 km/h (0 Bft) W-SW 237 0 min 0,000 mm 0,0 UV-I 0 W/m 2,6 C 4,9 C 0,0 km/h (0 Bft) 0,00 %
18.12.2014 02:00 5,0 C 86 % 1014,5 hPa 1,2 l/m 1,4 km/h (1 Bft) SW 236 0 min 0,000 mm 0,0 UV-I 0 W/m 2,9 C 5,0 C 4,0 km/h (1 Bft) 0,00 %
18.12.2014 03:00 5,3 C 86 % 1014,8 hPa 0,3 l/m 2,9 km/h (1 Bft) W 270 0 min 0,000 mm 0,0 UV-I 0 W/m 3,2 C 5,3 C 7,9 km/h (2 Bft) 0,00 %
18.12.2014 04:00 5,6 C 84 % 1015,2 hPa 0,0 l/m 4,0 km/h (1 Bft) W-SW 245 0 min 0,000 mm 0,0 UV-I 0 W/m 3,1 C 5,6 C 7,9 km/h (2 Bft) 0,00 %
18.12.2014 05:00 5,8 C 83 % 1015,1 hPa 0,3 l/m 0,3 km/h (0 Bft) W-NW 300 0 min 0,000 mm 0,0 UV-I 0 W/m 3,1 C 5,8 C 4,0 km/h (1 Bft) 0,00 %
18.12.2014 06:00 6,0 C 84 % 1016,2 hPa 0,6 l/m 9,3 km/h (2 Bft) W-SW 239 0 min 0,000 mm 0,0 UV-I 0 W/m 3,5 C 3,7 C 11,9 km/h (2 Bft) 0,00 %
18.12.2014 07:00 6,1 C 84 % 1016,6 hPa 0,0 l/m 0,6 km/h (0 Bft) O-SO 123 0 min 0,000 mm 0,0 UV-I 0 W/m 3,6 C 6,1 C 4,0 km/h (1 Bft) 0,00 %
18.12.2014 08:00 6,3 C 84 % 1017,3 hPa 0,0 l/m 0,0 km/h (0 Bft) S-SW 205 0 min 0,000 mm 0,0 UV-I 0 W/m 3,8 C 6,3 C 0,0 km/h (0 Bft) 0,00 %
18.12.2014 09:00 6,5 C 82 % 1017,8 hPa 0,0 l/m 0,0 km/h (0 Bft) O 90 0 min 0,000 mm 0,0 UV-I 28 W/m 3,7 C 6,5 C 0,0 km/h (0 Bft) 0,00 %
18.12.2014 10:00 7,5 C 79 % 1018,1 hPa 0,0 l/m 0,0 km/h (0 Bft) N 359 0 min 0,000 mm 1,0 UV-I 96 W/m 4,1 C 7,5 C 0,0 km/h (0 Bft) 0,00 %
18.12.2014 11:00 8,3 C 75 % 1017,6 hPa 0,0 l/m 3,2 km/h (1 Bft) N-NW 345 0 min 0,000 mm 1,0 UV-I 104 W/m 4,1 C 8,3 C 7,9 km/h (2 Bft) 0,00 %
18.12.2014 12:00 9,0 C 73 % 1017,1 hPa 0,0 l/m 4,7 km/h (1 Bft) W-SW 257 0 min 0,000 mm 1,0 UV-I 105 W/m 4,4 C 9,0 C 7,9 km/h (2 Bft) 0,00 %
18.12.2014 13:00 9,8 C 71 % 1016,7 hPa 0,0 l/m 0,0 km/h (0 Bft) O-SO 120 0 min 0,000 mm 1,0 UV-I 52 W/m 4,8 C 9,8 C 0,0 km/h (0 Bft) 0,00 %
18.12.2014 14:00 9,8 C 72 % 1016,7 hPa 0,0 l/m 0,0 km/h (0 Bft) S 180 0 min 0,000 mm 1,0 UV-I 47 W/m 5,0 C 9,8 C 0,0 km/h (0 Bft) 0,00 %
18.12.2014 15:00 9,9 C 74 % 1016,3 hPa 0,0 l/m 0,3 km/h (0 Bft) SW 235 0 min 0,000 mm 1,0 UV-I 31 W/m 5,5 C 9,9 C 4,0 km/h (1 Bft) 0,00 %
18.12.2014 16:00 8,8 C 82 % 1016,8 hPa 0,3 l/m 6,4 km/h (2 Bft) S 190 0 min 0,000 mm 0,0 UV-I 0 W/m 5,9 C 8,8 C 7,9 km/h (2 Bft) 0,00 %
18.12.2014 17:00 8,6 C 82 % 1016,9 hPa 0,0 l/m 0,6 km/h (0 Bft) W 259 0 min 0,000 mm 0,0 UV-I 0 W/m 5,7 C 8,6 C 4,0 km/h (1 Bft) 0,00 %
18.12.2014 18:00 8,6 C 83 % 1016,9 hPa 0,0 l/m 4,0 km/h (1 Bft) W 270 0 min 0,000 mm 0,0 UV-I 0 W/m 5,9 C 8,6 C 7,9 km/h (2 Bft) 0,00 %
18.12.2014 19:00 8,8 C 83 % 1017,2 hPa 0,3 l/m 4,3 km/h (1 Bft) O-SO 110 0 min 0,000 mm 0,0 UV-I 0 W/m 6,1 C 8,8 C 7,9 km/h (2 Bft) 0,00 %
18.12.2014 20:00 9,2 C 83 % 1017,1 hPa 0,0 l/m 4,0 km/h (1 Bft) SO 129 0 min 0,000 mm 0,0 UV-I 0 W/m 6,5 C 9,2 C 7,9 km/h (2 Bft) 0,00 %
18.12.2014 21:00 9,4 C 81 % 1017,1 hPa 0,0 l/m 0,0 km/h (0 Bft) SO 129 0 min 0,000 mm 0,0 UV-I 0 W/m 6,3 C 9,4 C 0,0 km/h (0 Bft) 0,00 %
18.12.2014 22:00 9,6 C 81 % 1017,3 hPa 0,6 l/m 5,8 km/h (2 Bft) N 10 0 min 0,000 mm 0,0 UV-I 0 W/m 6,5 C 9,6 C 7,9 km/h (2 Bft) 0,00 %
18.12.2014 23:00 9,9 C 80 % 1017,7 hPa 0,0 l/m 18,3 km/h (3 Bft) W 270 0 min 0,000 mm 0,0 UV-I 0 W/m 6,6 C 3,7 C 24,1 km/h (4 Bft) 0,00 %
_ Min-Zeit 00:00 13:00 00:00 - 01:00 - - - - - - 00:00 06:00 01:00 00:00
Minimum _ 4,9 C 71 % 1013,1 hPa - 0,0 km/h (0 Bft) - - - - - - 2,4 C 3,7 C 0,0 km/h (0 Bft) 0,00 %
_ Max-Zeit 15:00 02:00 10:00 02:00 23:00 - - 00:00 00:00 10:00 12:00 23:00 15:00 23:00 00:00
Maximum _ 9,9 C 86 % 1018,1 hPa 1,2 l/m 18,3 km/h
W (3 Bft)
- - 0 min 0,000 mm 1,0 UV-I 105 W/m 6,6 C 9,9 C 24,1 km/h
W (4 Bft)
0,00 %
Durchschnitt _ 7,8 C 81 % 1016,6 hPa #3,9 l/m 3,0 km/h (1 Bft) W-SW - #0 min. #0,000 mm 1,0 UV-I 66 W/m 4,6 C 7,4 C 5,5 km/h (1 Bft) 0,00 %